Location: Newark
(41.6478°N, 9.0078°E)
Time: 01:34:48
(UTC+00:00)

ISS - Visible Passes

Search period start: 18 January 2021 00:00
Search period end: 28 January 2021 00:00
Orbit: 418 x 419 km, 51.6° (Epoch: 18 January)

Date Brightness Start Highest point End Pass type
(mag) Time Alt. Az. Time Alt. Az. Time Alt. Az.
18 Jan -2.6 17:39:27 10° SSW 17:42:21 27° SE 17:43:01 25° ESE visible
18 Jan -0.2 19:15:51 10° W 19:15:59 11° W 19:15:59 11° W visible
19 Jan -1.8 16:52:34 10° S 16:54:46 16° SE 16:56:58 10° E visible
19 Jan -2.7 18:27:55 10° WSW 18:30:30 46° W 18:30:30 46° W visible
20 Jan -3.8 17:40:07 10° SW 17:43:29 82° SE 17:44:57 31° ENE visible
20 Jan -0.2 19:17:53 10° WNW 19:17:54 10° WNW 19:17:54 10° WNW visible
21 Jan -3.2 16:52:31 10° SW 16:55:45 46° SE 16:59:01 10° ENE visible
21 Jan -2.0 18:29:41 10° W 18:32:15 27° NW 18:32:15 27° NW visible
22 Jan -2.8 17:41:35 10° W 17:44:46 40° NNW 17:46:33 21° NNE visible
23 Jan -3.4 16:53:35 10° WSW 16:56:55 62° NNW 17:00:16 10° NE visible
23 Jan -1.4 18:31:47 10° WNW 18:33:44 18° NNW 18:33:44 18° NNW visible
24 Jan -1.9 17:43:30 10° WNW 17:46:13 22° NNW 17:47:56 16° NNE visible
25 Jan -1.2 18:33:48 10° NW 18:35:02 14° NNW 18:35:02 14° NNW visible
26 Jan -1.5 17:45:34 10° NW 17:47:47 16° N 17:49:11 13° NNE visible
27 Jan -1.1 18:35:18 10° NNW 18:36:15 14° NNW 18:36:15 14° NNW visible
